Regional Weather Roundup
Issued by NWS

Home | Current Version | Previous Version | Text Only | Print | Product List | Glossary On
Versions: 1 2 3 4 5 6 7 8 9 10 11 12 13 14 15 16 17 18 19 20 21 22 23 24 25 26 27 28 29 30 31 32 33 34 35 36 37 38 39 40 41 42 43 44 45 46 47 48 49 50
000
ASCA42 TJSJ 231611
RWRPR
PUERTO RICO/U.S. VIRGIN ISLANDS HOURLY WEATHER ROUNDUP
NATIONAL WEATHER SERVICE SAN JUAN PR
1200 PM AST WED JUL 23 2014

PRZ001-004-231700-
PUERTO RICO

CITY           SKY/WX    TMP DP  RH WIND       PRES   REMARKS
SAN JUAN LMM   MOSUNNY   88  75  66 NE21G28   30.09S HX  97
PONCE          MOSUNNY   91  75  59 SE12G17   30.02  HX 102
MAYAGUEZ       MOSUNNY   91  70  49 E9        30.08F HX  97
AGUADILLA      MOSUNNY   84  75  74 E18       30.10F HX  92
CEIBA          SUNNY     88  73  62 E13       30.12S HX  96
$$

PRZ006-007-231700-
U.S. VIRGIN ISLANDS

CITY           SKY/WX    TMP DP  RH WIND       PRES   REMARKS
CHARLOTTE AMA  MOSUNNY   91  73  55 E14G22    30.09S HX 100
CHRISTIANSTED  MOSUNNY   88  72  58 E20G29    30.09S HX  94
$$

HOURLY WEATHER ROUNDUP FOR THE NEWS MEDIA

CITY           SKY/WX    TMP DP  RH WIND       PRES   REMARKS
MIAMI          HVY RAIN  79  74  84 CALM      30.10S VSB 1
ORLANDO        SUNNY     87  75  67 W3        30.09S HX  96
NEW YORK       MOSUNNY   81  71  71 S12       29.94F
NEWARK         MOSUNNY   87  72  60 S8        29.90F HX  93
CHICAGO        MOSUNNY   70  53  54 NE17G25   30.15F
HARTFORD       MOSUNNY   82  71  69 SW16G23   29.90F
BOSTON         MOSUNNY   87  70  56 SW14      29.85F HX  92
DALLAS         MOSUNNY   89  67  47 VRB3      30.11F HX  92
PHILADELPHIA   MOSUNNY   87  70  56 S13       29.93F HX  92


USA.gov is the U.S. government's official web portal to all federal, state and local government web resources and services.